Time,TemperatureF,DewpointF,PressureIn,WindDirection,WindDirectionDegrees,WindSpeedMPH,WindSpeedGustMPH,Humidity,HourlyPrecipIn,Conditions,Clouds,dailyrainin,SoftwareType,DateUTC
2013-10-13 00:01:00,57.8,52.0,30.29,ENE,78,0.0,0.0,81,0.00,,OVC060,0.00,VWS V14.01,2013-10-13 04:01:00,
2013-10-13 00:02:00,57.8,52.0,30.29,ENE,78,0.0,0.0,81,0.00,,OVC060,0.00,VWS V14.01,2013-10-13 04:02:00,
2013-10-13 00:07:00,57.9,52.5,30.29,ENE,66,1.0,2.0,82,0.00,,OVC060,0.00,VWS V14.01,2013-10-13 04:07:00,
2013-10-13 00:12:00,58.0,52.5,30.29,ENE,65,0.0,2.0,82,0.00,,OVC060,0.00,VWS V14.01,2013-10-13 04:12:00,
2013-10-13 00:17:00,58.1,52.6,30.29,ENE,63,0.0,4.0,82,0.00,,OVC060,0.00,VWS V14.01,2013-10-13 04:17:00,
2013-10-13 00:22:00,58.2,52.7,30.29,NE,50,0.0,4.0,82,0.00,,OVC060,0.00,VWS V14.01,2013-10-13 04:22:00,
2013-10-13 00:27:00,58.4,53.3,30.29,ENE,61,0.0,5.0,83,0.00,,OVC060,0.00,VWS V14.01,2013-10-13 04:27:00,
2013-10-13 00:32:00,58.5,53.4,30.28,NE,50,0.0,5.0,83,0.00,,OVC060,0.00,VWS V14.01,2013-10-13 04:32:00,
2013-10-13 00:37:00,58.7,53.6,30.28,East,100,0.0,5.0,83,0.00,,OVC060,0.00,VWS V14.01,2013-10-13 04:37:00,
2013-10-13 00:42:00,58.8,53.7,30.29,NE,46,1.0,5.0,83,0.00,,OVC060,0.00,VWS V14.01,2013-10-13 04:42:00,
2013-10-13 00:47:00,58.9,53.8,30.29,East,86,3.0,5.0,83,0.00,,OVC060,0.00,VWS V14.01,2013-10-13 04:47:00,
2013-10-13 00:52:00,59.0,53.8,30.29,NE,52,0.0,5.0,83,0.00,,OVC060,0.00,VWS V14.01,2013-10-13 04:52:00,
2013-10-13 00:57:00,59.1,54.3,30.29,NE,45,2.0,5.0,84,0.00,,OVC060,0.00,VWS V14.01,2013-10-13 04:57:00,
2013-10-13 01:02:00,59.3,54.5,30.29,NE,45,0.0,5.0,84,0.00,,OVC045,0.00,VWS V14.01,2013-10-13 05:02:00,
2013-10-13 01:07:00,59.4,54.6,30.29,NE,46,0.0,5.0,84,0.00,,OVC045,0.00,VWS V14.01,2013-10-13 05:07:00,
2013-10-13 01:12:00,59.5,54.7,30.29,NE,45,0.0,5.0,84,0.00,,OVC045,0.00,VWS V14.01,2013-10-13 05:12:00,
2013-10-13 01:17:00,59.5,54.7,30.29,ESE,122,0.0,5.0,84,0.00,,OVC045,0.00,VWS V14.01,2013-10-13 05:17:00,
2013-10-13 01:22:00,59.6,54.8,30.30,NE,45,0.0,6.0,84,0.00,,OVC045,0.00,VWS V14.01,2013-10-13 05:22:00,
2013-10-13 01:27:00,59.6,54.8,30.29,NE,45,2.0,6.0,84,0.00,,OVC045,0.00,VWS V14.01,2013-10-13 05:27:00,
2013-10-13 01:32:00,59.7,54.9,30.29,NE,47,0.0,1.0,84,0.00,,OVC045,0.00,VWS V14.01,2013-10-13 05:32:00,
2013-10-13 01:37:00,59.7,54.9,30.29,NE,47,0.0,1.0,84,0.00,,OVC045,0.00,VWS V14.01,2013-10-13 05:37:00,
2013-10-13 01:42:00,59.8,55.3,30.29,NE,56,2.0,5.0,85,0.00,,OVC045,0.00,VWS V14.01,2013-10-13 05:42:00,
2013-10-13 01:47:00,59.8,55.0,30.30,NE,49,1.0,5.0,84,0.00,,OVC045,0.00,VWS V14.01,2013-10-13 05:47:00,
2013-10-13 01:52:00,59.8,55.0,30.29,NE,48,0.0,5.0,84,0.00,,OVC045,0.00,VWS V14.01,2013-10-13 05:52:00,
2013-10-13 01:57:00,59.8,55.0,30.30,NE,55,1.0,5.0,84,0.00,,OVC045,0.00,VWS V14.01,2013-10-13 05:57:00,
2013-10-13 02:02:00,59.7,55.2,30.30,NE,50,0.0,0.0,85,0.00,,OVC032,0.00,VWS V14.01,2013-10-13 06:02:00,
2013-10-13 02:07:00,59.6,55.1,30.30,NE,50,0.0,2.0,85,0.00,,OVC032,0.00,VWS V14.01,2013-10-13 06:07:00,
2013-10-13 02:12:00,59.6,55.1,30.30,NE,55,0.0,3.0,85,0.00,,OVC032,0.00,VWS V14.01,2013-10-13 06:12:00,
2013-10-13 02:17:00,59.6,55.1,30.31,NE,46,0.0,3.0,85,0.00,,OVC032,0.00,VWS V14.01,2013-10-13 06:17:00,
2013-10-13 02:22:00,59.5,55.0,30.31,NE,47,0.0,3.0,85,0.00,,OVC032,0.00,VWS V14.01,2013-10-13 06:22:00,
2013-10-13 02:27:00,59.4,54.9,30.31,NE,47,0.0,3.0,85,0.00,,OVC032,0.00,VWS V14.01,2013-10-13 06:27:00,
2013-10-13 02:32:00,59.4,54.6,30.31,NE,47,0.0,0.0,84,0.00,,OVC032,0.00,VWS V14.01,2013-10-13 06:32:00,
2013-10-13 02:37:00,59.3,54.8,30.30,NE,47,0.0,0.0,85,0.00,,OVC032,0.00,VWS V14.01,2013-10-13 06:37:00,
2013-10-13 02:42:00,59.2,54.4,30.30,NE,47,0.0,0.0,84,0.00,,OVC032,0.00,VWS V14.01,2013-10-13 06:42:00,
2013-10-13 02:47:00,59.2,54.7,30.30,NE,47,0.0,1.0,85,0.00,,OVC032,0.00,VWS V14.01,2013-10-13 06:47:00,
2013-10-13 02:52:00,59.3,54.8,30.30,NE,47,0.0,3.0,85,0.00,,OVC032,0.00,VWS V14.01,2013-10-13 06:52:00,
2013-10-13 02:57:00,59.3,54.5,30.30,NE,45,1.0,3.0,84,0.00,,OVC032,0.00,VWS V14.01,2013-10-13 06:57:00,
2013-10-13 03:02:00,59.4,54.6,30.30,ESE,108,0.0,1.0,84,0.00,,OVC036,0.00,VWS V14.01,2013-10-13 07:02:00,
2013-10-13 03:07:00,59.5,54.7,30.30,NE,52,3.0,5.0,84,0.00,,OVC036,0.00,VWS V14.01,2013-10-13 07:07:00,
2013-10-13 03:12:00,59.6,54.8,30.30,NE,45,0.0,5.0,84,0.00,,OVC036,0.00,VWS V14.01,2013-10-13 07:12:00,
2013-10-13 03:17:00,59.7,54.5,30.30,East,96,0.0,5.0,83,0.00,,OVC036,0.00,VWS V14.01,2013-10-13 07:17:00,
2013-10-13 03:22:00,59.7,54.5,30.30,NE,50,0.0,5.0,83,0.00,,OVC036,0.00,VWS V14.01,2013-10-13 07:22:00,
2013-10-13 03:27:00,59.8,54.6,30.30,NE,45,0.0,7.0,83,0.00,,OVC036,0.00,VWS V14.01,2013-10-13 07:27:00,
2013-10-13 03:32:00,59.8,54.6,30.30,ESE,106,0.0,4.0,83,0.00,,OVC036,0.00,VWS V14.01,2013-10-13 07:32:00,
2013-10-13 03:37:00,59.9,54.4,30.30,NE,48,5.0,5.0,82,0.00,,OVC036,0.00,VWS V14.01,2013-10-13 07:37:00,
2013-10-13 03:42:00,60.0,54.5,30.30,NE,45,1.0,7.0,82,0.00,,OVC036,0.00,VWS V14.01,2013-10-13 07:42:00,
2013-10-13 03:47:00,60.0,54.2,30.31,NE,40,0.0,8.0,81,0.00,,OVC036,0.00,VWS V14.01,2013-10-13 07:47:00,
2013-10-13 03:52:00,60.0,54.2,30.31,East,100,0.0,8.0,81,0.00,,OVC036,0.00,VWS V14.01,2013-10-13 07:52:00,
2013-10-13 03:58:00,60.0,54.2,30.31,ENE,59,4.0,8.0,81,0.00,,OVC036,0.00,VWS V14.01,2013-10-13 07:58:00,
2013-10-13 04:03:00,60.0,54.2,30.31,NE,48,3.0,6.0,81,0.00,,OVC030,0.00,VWS V14.01,2013-10-13 08:03:00,
2013-10-13 04:08:00,60.0,54.2,30.31,ENE,59,0.0,6.0,81,0.00,,OVC030,0.00,VWS V14.01,2013-10-13 08:08:00,
2013-10-13 04:13:00,60.0,54.2,30.31,NE,46,2.0,6.0,81,0.00,,OVC030,0.00,VWS V14.01,2013-10-13 08:13:00,
2013-10-13 04:18:00,60.0,53.8,30.32,ENE,69,0.0,6.0,80,0.00,,OVC030,0.00,VWS V14.01,2013-10-13 08:18:00,
2013-10-13 04:23:00,60.0,53.8,30.32,NE,47,0.0,6.0,80,0.00,,OVC030,0.00,VWS V14.01,2013-10-13 08:23:00,
2013-10-13 04:28:00,59.9,53.7,30.31,NNE,13,0.0,6.0,80,0.00,,OVC030,0.00,VWS V14.01,2013-10-13 08:28:00,
2013-10-13 04:33:00,59.9,53.7,30.31,NE,35,0.0,6.0,80,0.00,,OVC030,0.00,VWS V14.01,2013-10-13 08:33:00,
2013-10-13 04:38:00,59.9,53.7,30.31,NE,50,2.0,7.0,80,0.00,,OVC030,0.00,VWS V14.01,2013-10-13 08:38:00,
2013-10-13 04:43:00,59.8,53.6,30.31,ENE,61,0.0,7.0,80,0.00,,OVC030,0.00,VWS V14.01,2013-10-13 08:43:00,
2013-10-13 04:48:00,59.8,53.6,30.31,ENE,74,0.0,7.0,80,0.00,,OVC030,0.00,VWS V14.01,2013-10-13 08:48:00,
2013-10-13 04:53:00,59.7,53.5,30.31,ENE,72,0.0,7.0,80,0.00,,OVC030,0.00,VWS V14.01,2013-10-13 08:53:00,
2013-10-13 04:58:00,59.7,53.5,30.31,East,82,0.0,7.0,80,0.00,,OVC030,0.00,VWS V14.01,2013-10-13 08:58:00,
2013-10-13 05:03:00,59.7,53.5,30.31,NE,48,3.0,4.0,80,0.00,,OVC030,0.00,VWS V14.01,2013-10-13 09:03:00,
2013-10-13 05:08:00,59.6,53.8,30.32,ENE,72,0.0,7.0,81,0.00,,OVC030,0.00,VWS V14.01,2013-10-13 09:08:00,
2013-10-13 05:13:00,59.6,53.4,30.31,ENE,67,0.0,7.0,80,0.00,,OVC030,0.00,VWS V14.01,2013-10-13 09:13:00,
2013-10-13 05:18:00,59.5,53.3,30.31,ESE,110,0.0,7.0,80,0.00,,OVC030,0.00,VWS V14.01,2013-10-13 09:18:00,
2013-10-13 05:23:00,59.5,53.3,30.31,NE,47,0.0,7.0,80,0.00,,OVC030,0.00,VWS V14.01,2013-10-13 09:23:00,
2013-10-13 05:28:00,59.4,53.2,30.31,NE,46,0.0,7.0,80,0.00,,OVC030,0.00,VWS V14.01,2013-10-13 09:28:00,
2013-10-13 05:33:00,59.4,53.2,30.31,NE,45,0.0,4.0,80,0.00,,OVC030,0.00,VWS V14.01,2013-10-13 09:33:00,
2013-10-13 05:38:00,59.3,53.1,30.32,East,79,0.0,6.0,80,0.00,,OVC030,0.00,VWS V14.01,2013-10-13 09:38:00,
2013-10-13 05:43:00,59.2,53.0,30.32,East,85,0.0,6.0,80,0.00,,OVC030,0.00,VWS V14.01,2013-10-13 09:43:00,
2013-10-13 05:48:00,59.2,53.4,30.32,ENE,72,0.0,6.0,81,0.00,,OVC030,0.00,VWS V14.01,2013-10-13 09:48:00,
2013-10-13 05:53:00,59.1,53.3,30.32,East,97,4.0,6.0,81,0.00,,OVC030,0.00,VWS V14.01,2013-10-13 09:53:00,
2013-10-13 05:58:00,59.1,53.3,30.32,NE,47,0.0,8.0,81,0.00,,OVC030,0.00,VWS V14.01,2013-10-13 09:58:00,
2013-10-13 06:03:00,59.0,53.2,30.32,East,80,4.0,7.0,81,0.00,,OVC032,0.00,VWS V14.01,2013-10-13 10:03:00,
2013-10-13 06:08:00,59.0,53.2,30.32,ENE,58,1.0,7.0,81,0.00,,OVC032,0.00,VWS V14.01,2013-10-13 10:08:00,
2013-10-13 06:13:00,58.9,53.1,30.32,ESE,122,0.0,9.0,81,0.00,,OVC032,0.00,VWS V14.01,2013-10-13 10:13:00,
2013-10-13 06:18:00,58.9,53.1,30.33,NE,49,0.0,9.0,81,0.00,,OVC032,0.00,VWS V14.01,2013-10-13 10:18:00,
2013-10-13 06:23:00,58.9,52.8,30.33,NE,51,1.0,9.0,80,0.00,,OVC032,0.00,VWS V14.01,2013-10-13 10:23:00,
2013-10-13 06:28:00,58.9,52.8,30.33,NE,53,6.0,9.0,80,0.00,,OVC032,0.00,VWS V14.01,2013-10-13 10:28:00,
2013-10-13 06:33:00,58.9,52.8,30.33,ENE,75,0.0,1.0,80,0.00,,OVC032,0.00,VWS V14.01,2013-10-13 10:33:00,
2013-10-13 06:38:00,58.9,52.8,30.33,NE,45,2.0,9.0,80,0.00,,OVC032,0.00,VWS V14.01,2013-10-13 10:38:00,
2013-10-13 06:43:00,58.9,52.4,30.33,NE,45,0.0,9.0,79,0.00,,OVC032,0.00,VWS V14.01,2013-10-13 10:43:00,
2013-10-13 06:48:00,58.9,52.8,30.34,NE,45,0.0,9.0,80,0.00,,OVC032,0.00,VWS V14.01,2013-10-13 10:48:00,
2013-10-13 06:53:00,58.9,52.8,30.34,NE,47,0.0,9.0,80,0.00,,OVC032,0.00,VWS V14.01,2013-10-13 10:53:00,
2013-10-13 06:58:00,58.9,52.4,30.34,NE,43,2.0,9.0,79,0.00,,OVC032,0.00,VWS V14.01,2013-10-13 10:58:00,
2013-10-13 07:03:00,58.9,52.4,30.34,NE,45,0.0,4.0,79,0.00,,OVC030,0.00,VWS V14.01,2013-10-13 11:03:00,
2013-10-13 07:08:00,58.9,52.4,30.34,SE,124,0.0,4.0,79,0.00,,OVC030,0.00,VWS V14.01,2013-10-13 11:08:00,
2013-10-13 07:13:00,58.8,52.3,30.34,NE,50,0.0,6.0,79,0.00,,OVC030,0.00,VWS V14.01,2013-10-13 11:13:00,
2013-10-13 07:18:00,58.9,52.4,30.34,NE,49,0.0,6.0,79,0.00,,OVC030,0.00,VWS V14.01,2013-10-13 11:18:00,
2013-10-13 07:23:00,58.9,52.4,30.35,East,82,1.0,6.0,79,0.00,,OVC030,0.00,VWS V14.01,2013-10-13 11:23:00,
2013-10-13 07:28:00,58.8,52.3,30.35,ESE,113,0.0,6.0,79,0.00,,OVC030,0.00,VWS V14.01,2013-10-13 11:28:00,
2013-10-13 07:33:00,58.8,52.3,30.35,ENE,69,5.0,6.0,79,0.00,,OVC030,0.00,VWS V14.01,2013-10-13 11:33:00,
2013-10-13 07:38:00,58.9,52.1,30.35,ESE,103,0.0,7.0,78,0.00,,OVC030,0.00,VWS V14.01,2013-10-13 11:38:00,
2013-10-13 07:43:00,58.9,52.1,30.35,ESE,104,0.0,7.0,78,0.00,,OVC030,0.00,VWS V14.01,2013-10-13 11:43:00,
2013-10-13 07:48:00,58.9,51.7,30.35,NE,46,0.0,9.0,77,0.00,,OVC030,0.00,VWS V14.01,2013-10-13 11:48:00,
2013-10-13 07:53:00,59.0,51.8,30.36,East,97,0.0,9.0,77,0.00,,OVC030,0.00,VWS V14.01,2013-10-13 11:53:00,
2013-10-13 07:58:00,59.0,51.8,30.36,NE,48,0.0,9.0,77,0.00,,OVC030,0.00,VWS V14.01,2013-10-13 11:58:00,
2013-10-13 08:03:00,59.1,51.9,30.36,ENE,60,0.0,5.0,77,0.00,,OVC030,0.00,VWS V14.01,2013-10-13 12:03:00,
2013-10-13 08:08:00,59.1,51.2,30.36,NE,44,5.0,8.0,75,0.00,,OVC030,0.00,VWS V14.01,2013-10-13 12:08:00,
2013-10-13 08:13:00,59.2,51.3,30.36,NNE,24,2.0,8.0,75,0.00,,OVC030,0.00,VWS V14.01,2013-10-13 12:13:00,
2013-10-13 08:18:00,59.3,51.4,30.36,ENE,58,5.0,8.0,75,0.00,,OVC030,0.00,VWS V14.01,2013-10-13 12:18:00,
2013-10-13 08:23:00,59.3,51.0,30.36,ENE,57,1.0,11.0,74,0.00,,OVC030,0.00,VWS V14.01,2013-10-13 12:23:00,
2013-10-13 08:28:00,59.4,50.8,30.36,ESE,121,0.0,11.0,73,0.00,,OVC030,0.00,VWS V14.01,2013-10-13 12:28:00,
2013-10-13 08:33:00,59.5,50.8,30.37,NE,45,0.0,5.0,73,0.00,,OVC030,0.00,VWS V14.01,2013-10-13 12:33:00,
2013-10-13 08:38:00,59.5,50.8,30.37,NE,54,0.0,5.0,73,0.00,,OVC030,0.00,VWS V14.01,2013-10-13 12:38:00,
2013-10-13 08:43:00,59.6,51.0,30.37,NE,45,3.0,6.0,73,0.00,,OVC030,0.00,VWS V14.01,2013-10-13 12:43:00,
2013-10-13 08:48:00,59.7,51.0,30.38,ESE,116,1.0,6.0,73,0.00,,OVC030,0.00,VWS V14.01,2013-10-13 12:48:00,
2013-10-13 08:53:00,59.8,51.1,30.38,ENE,64,2.0,6.0,73,0.00,,OVC030,0.00,VWS V14.01,2013-10-13 12:53:00,
2013-10-13 08:58:00,59.8,50.8,30.38,East,87,0.0,8.0,72,0.00,,OVC030,0.00,VWS V14.01,2013-10-13 12:58:00,
2013-10-13 09:03:00,59.9,50.9,30.38,NE,44,0.0,6.0,72,0.00,,OVC032,0.00,VWS V14.01,2013-10-13 13:03:00,
2013-10-13 09:08:00,59.9,50.9,30.38,East,80,1.0,8.0,72,0.00,,OVC032,0.00,VWS V14.01,2013-10-13 13:08:00,
2013-10-13 09:13:00,60.0,51.0,30.38,NE,44,3.0,8.0,72,0.00,,OVC032,0.00,VWS V14.01,2013-10-13 13:13:00,
2013-10-13 09:18:00,60.1,50.7,30.38,NE,48,1.0,9.0,71,0.00,,OVC032,0.00,VWS V14.01,2013-10-13 13:18:00,
2013-10-13 09:23:00,60.2,51.2,30.39,NE,45,4.0,9.0,72,0.00,,OVC032,0.00,VWS V14.01,2013-10-13 13:23:00,
2013-10-13 09:28:00,60.2,50.8,30.39,NE,50,4.0,10.0,71,0.00,,OVC032,0.00,VWS V14.01,2013-10-13 13:28:00,
2013-10-13 09:33:00,60.3,50.9,30.39,NE,42,5.0,10.0,71,0.00,,OVC032,0.00,VWS V14.01,2013-10-13 13:33:00,
2013-10-13 09:38:00,60.4,51.0,30.39,NE,48,3.0,10.0,71,0.00,,OVC032,0.00,VWS V14.01,2013-10-13 13:38:00,
2013-10-13 09:43:00,60.5,51.1,30.39,East,84,4.0,10.0,71,0.00,,OVC032,0.00,VWS V14.01,2013-10-13 13:43:00,
2013-10-13 09:48:00,60.6,51.2,30.39,NE,46,4.0,10.0,71,0.00,,OVC032,0.00,VWS V14.01,2013-10-13 13:48:00,
2013-10-13 09:53:00,60.7,50.9,30.39,NE,50,2.0,10.0,70,0.00,,OVC032,0.00,VWS V14.01,2013-10-13 13:53:00,
2013-10-13 09:58:00,60.7,50.9,30.39,ESE,113,1.0,10.0,70,0.00,,OVC032,0.00,VWS V14.01,2013-10-13 13:58:00,
2013-10-13 10:03:00,60.7,50.9,30.39,ESE,113,4.0,7.0,70,0.00,,OVC032,0.00,VWS V14.01,2013-10-13 14:03:00,
2013-10-13 10:08:00,60.8,51.0,30.39,ENE,65,0.0,7.0,70,0.00,,OVC032,0.00,VWS V14.01,2013-10-13 14:08:00,
2013-10-13 10:13:00,60.9,51.1,30.39,NE,51,3.0,8.0,70,0.00,,OVC032,0.00,VWS V14.01,2013-10-13 14:13:00,
2013-10-13 10:18:00,61.0,51.2,30.39,East,92,3.0,8.0,70,0.00,,OVC032,0.00,VWS V14.01,2013-10-13 14:18:00,
2013-10-13 10:23:00,61.3,51.5,30.39,ESE,117,2.0,8.0,70,0.00,,OVC032,0.00,VWS V14.01,2013-10-13 14:23:00,
2013-10-13 10:28:00,61.5,51.2,30.39,NE,35,5.0,8.0,69,0.00,,OVC032,0.00,VWS V14.01,2013-10-13 14:28:00,
2013-10-13 10:33:00,61.7,51.4,30.39,NE,45,0.0,7.0,69,0.00,,OVC032,0.00,VWS V14.01,2013-10-13 14:33:00,
2013-10-13 10:38:00,61.9,51.2,30.39,East,87,0.0,7.0,68,0.00,,OVC032,0.00,VWS V14.01,2013-10-13 14:38:00,
2013-10-13 10:43:00,62.2,51.5,30.39,East,90,2.0,7.0,68,0.00,,OVC032,0.00,VWS V14.01,2013-10-13 14:43:00,
2013-10-13 10:48:00,62.4,51.3,30.39,NE,47,4.0,10.0,67,0.00,,OVC032,0.00,VWS V14.01,2013-10-13 14:48:00,
2013-10-13 10:53:00,62.5,51.4,30.39,ENE,72,2.0,10.0,67,0.00,,OVC032,0.00,VWS V14.01,2013-10-13 14:53:00,
2013-10-13 10:58:00,62.8,51.3,30.39,ESE,106,1.0,10.0,66,0.00,,OVC032,0.00,VWS V14.01,2013-10-13 14:58:00,
2013-10-13 11:03:00,63.1,51.6,30.39,ENE,60,3.0,4.0,66,0.00,,OVC032,0.00,VWS V14.01,2013-10-13 15:03:00,
2013-10-13 11:08:00,63.3,51.8,30.39,NE,49,7.0,7.0,66,0.00,,OVC032,0.00,VWS V14.01,2013-10-13 15:08:00,
2013-10-13 11:13:00,63.5,51.5,30.39,NE,56,5.0,7.0,65,0.00,,OVC032,0.00,VWS V14.01,2013-10-13 15:13:00,
2013-10-13 11:18:00,63.7,51.7,30.39,ENE,72,3.0,7.0,65,0.00,,OVC032,0.00,VWS V14.01,2013-10-13 15:18:00,
2013-10-13 11:23:00,64.0,52.0,30.38,East,94,0.0,7.0,65,0.00,,OVC032,0.00,VWS V14.01,2013-10-13 15:23:00,
2013-10-13 11:28:00,64.3,52.3,30.38,NE,47,5.0,7.0,65,0.00,,OVC032,0.00,VWS V14.01,2013-10-13 15:28:00,
2013-10-13 11:33:00,64.5,51.6,30.38,NE,42,3.0,7.0,63,0.00,,OVC032,0.00,VWS V14.01,2013-10-13 15:33:00,
2013-10-13 11:38:00,64.7,52.3,30.38,ESE,112,1.0,7.0,64,0.00,,OVC032,0.00,VWS V14.01,2013-10-13 15:38:00,
2013-10-13 11:43:00,64.8,51.9,30.38,NE,56,3.0,7.0,63,0.00,,OVC032,0.00,VWS V14.01,2013-10-13 15:43:00,
2013-10-13 11:48:00,64.9,52.0,30.38,ENE,59,3.0,7.0,63,0.00,,OVC032,0.00,VWS V14.01,2013-10-13 15:48:00,
2013-10-13 11:53:00,65.0,52.1,30.38,NE,44,2.0,7.0,63,0.00,,OVC032,0.00,VWS V14.01,2013-10-13 15:53:00,
2013-10-13 11:58:00,65.3,52.0,30.38,ENE,63,2.0,7.0,62,0.00,,OVC032,0.00,VWS V14.01,2013-10-13 15:58:00,
2013-10-13 12:03:00,65.7,51.9,30.38,NE,39,1.0,6.0,61,0.00,,OVC034,0.00,VWS V14.01,2013-10-13 16:03:00,
2013-10-13 12:08:00,66.0,52.2,30.38,NE,45,3.0,6.0,61,0.00,,OVC034,0.00,VWS V14.01,2013-10-13 16:08:00,
2013-10-13 12:13:00,66.1,52.3,30.38,NE,36,3.0,7.0,61,0.00,,OVC034,0.00,VWS V14.01,2013-10-13 16:13:00,
2013-10-13 12:18:00,66.3,52.5,30.38,NE,36,4.0,7.0,61,0.00,,OVC034,0.00,VWS V14.01,2013-10-13 16:18:00,
2013-10-13 12:23:00,66.7,53.3,30.38,NE,36,0.0,7.0,62,0.00,,OVC034,0.00,VWS V14.01,2013-10-13 16:23:00,
2013-10-13 12:28:00,67.5,53.1,30.38,NE,37,0.0,7.0,60,0.00,,OVC034,0.00,VWS V14.01,2013-10-13 16:28:00,
2013-10-13 12:33:00,68.3,53.9,30.37,NE,37,0.0,1.0,60,0.00,,OVC034,0.00,VWS V14.01,2013-10-13 16:33:00,
2013-10-13 12:38:00,69.1,53.2,30.37,NE,37,2.0,3.0,57,0.00,,OVC034,0.00,VWS V14.01,2013-10-13 16:38:00,
2013-10-13 12:43:00,69.6,53.7,30.37,NNW,338,0.0,3.0,57,0.00,,OVC034,0.00,VWS V14.01,2013-10-13 16:43:00,
2013-10-13 12:48:00,70.1,54.7,30.37,NNW,338,0.0,3.0,58,0.00,,OVC034,0.00,VWS V14.01,2013-10-13 16:48:00,
2013-10-13 12:53:00,71.1,54.1,30.36,NNE,24,4.0,5.0,55,0.00,,OVC034,0.00,VWS V14.01,2013-10-13 16:53:00,
2013-10-13 12:58:00,71.2,54.7,30.36,NE,37,0.0,5.0,56,0.00,,OVC034,0.00,VWS V14.01,2013-10-13 16:58:00,
2013-10-13 13:03:00,71.5,54.0,30.36,NE,37,0.0,6.0,54,0.00,,OVC046,0.00,VWS V14.01,2013-10-13 17:03:00,
2013-10-13 13:08:00,71.8,54.3,30.36,North,2,2.0,6.0,54,0.00,,OVC046,0.00,VWS V14.01,2013-10-13 17:08:00,
2013-10-13 13:13:00,72.3,55.2,30.35,ENE,57,4.0,7.0,55,0.00,,OVC046,0.00,VWS V14.01,2013-10-13 17:13:00,
2013-10-13 13:18:00,73.0,55.4,30.35,ENE,60,0.0,7.0,54,0.00,,OVC046,0.00,VWS V14.01,2013-10-13 17:18:00,
2013-10-13 13:23:00,74.3,56.6,30.35,SSW,196,0.0,7.0,54,0.00,,OVC046,0.00,VWS V14.01,2013-10-13 17:23:00,
2013-10-13 13:28:00,75.8,56.4,30.35,SSW,196,0.0,7.0,51,0.00,,OVC046,0.00,VWS V14.01,2013-10-13 17:28:00,
2013-10-13 13:33:00,76.8,57.3,30.35,SSW,196,0.0,1.0,51,0.00,,OVC046,0.00,VWS V14.01,2013-10-13 17:33:00,
2013-10-13 13:38:00,77.5,56.9,30.35,SSW,196,0.0,4.0,49,0.00,,OVC046,0.00,VWS V14.01,2013-10-13 17:38:00,
2013-10-13 13:43:00,78.0,56.7,30.35,ESE,109,2.0,6.0,48,0.00,,OVC046,0.00,VWS V14.01,2013-10-13 17:43:00,
2013-10-13 13:48:00,78.0,56.2,30.35,NE,45,0.0,6.0,47,0.00,,OVC046,0.00,VWS V14.01,2013-10-13 17:48:00,
2013-10-13 13:53:00,77.5,55.7,30.34,NE,45,4.0,6.0,47,0.00,,OVC046,0.00,VWS V14.01,2013-10-13 17:53:00,
2013-10-13 13:58:00,76.6,55.5,30.34,NE,45,2.0,6.0,48,0.00,,OVC046,0.00,VWS V14.01,2013-10-13 17:58:00,
2013-10-13 14:03:00,76.3,55.8,30.34,ESE,122,0.0,5.0,49,0.00,,OVC065,0.00,VWS V14.01,2013-10-13 18:03:00,
2013-10-13 14:08:00,76.3,55.2,30.34,SE,134,2.0,7.0,48,0.00,,OVC065,0.00,VWS V14.01,2013-10-13 18:08:00,
2013-10-13 14:13:00,76.1,54.4,30.34,NE,45,2.0,7.0,47,0.00,,OVC065,0.00,VWS V14.01,2013-10-13 18:13:00,
2013-10-13 14:18:00,75.5,54.5,30.34,NNE,29,2.0,7.0,48,0.00,,OVC065,0.00,VWS V14.01,2013-10-13 18:18:00,
2013-10-13 14:23:00,75.4,55.5,30.34,SSE,160,3.0,7.0,50,0.00,,OVC065,0.00,VWS V14.01,2013-10-13 18:23:00,
2013-10-13 14:28:00,75.7,54.6,30.34,SE,127,0.0,8.0,48,0.00,,OVC065,0.00,VWS V14.01,2013-10-13 18:28:00,
2013-10-13 14:33:00,75.9,55.4,30.33,SE,129,0.0,4.0,49,0.00,,OVC065,0.00,VWS V14.01,2013-10-13 18:33:00,
2013-10-13 14:38:00,76.2,54.5,30.33,SE,145,3.0,6.0,47,0.00,,OVC065,0.00,VWS V14.01,2013-10-13 18:38:00,
2013-10-13 14:43:00,76.2,55.1,30.33,ESE,108,0.0,8.0,48,0.00,,OVC065,0.00,VWS V14.01,2013-10-13 18:43:00,
2013-10-13 14:48:00,76.3,55.2,30.33,East,101,0.0,8.0,48,0.00,,OVC065,0.00,VWS V14.01,2013-10-13 18:48:00,
2013-10-13 14:53:00,76.4,54.7,30.33,South,178,4.0,8.0,47,0.00,,OVC065,0.00,VWS V14.01,2013-10-13 18:53:00,
2013-10-13 14:58:00,76.4,54.1,30.33,South,188,0.0,8.0,46,0.00,,OVC065,0.00,VWS V14.01,2013-10-13 18:58:00,
2013-10-13 15:03:00,76.4,54.7,30.33,South,188,0.0,5.0,47,0.00,,OVC060,0.00,VWS V14.01,2013-10-13 19:03:00,
2013-10-13 15:08:00,76.5,54.8,30.33,ESE,106,1.0,6.0,47,0.00,,OVC060,0.00,VWS V14.01,2013-10-13 19:08:00,
2013-10-13 15:13:00,76.4,54.7,30.33,East,97,4.0,6.0,47,0.00,,OVC060,0.00,VWS V14.01,2013-10-13 19:13:00,
2013-10-13 15:18:00,76.3,54.6,30.33,SE,128,0.0,6.0,47,0.00,,OVC060,0.00,VWS V14.01,2013-10-13 19:18:00,
2013-10-13 15:23:00,76.0,54.9,30.33,ESE,123,0.0,7.0,48,0.00,,OVC060,0.00,VWS V14.01,2013-10-13 19:23:00,
2013-10-13 15:28:00,75.8,54.7,30.33,SSE,160,4.0,7.0,48,0.00,,OVC060,0.00,VWS V14.01,2013-10-13 19:28:00,
2013-10-13 15:33:00,75.5,54.5,30.33,South,185,1.0,4.0,48,0.00,,OVC060,0.00,VWS V14.01,2013-10-13 19:33:00,
2013-10-13 15:38:00,75.3,54.3,30.33,South,185,0.0,4.0,48,0.00,,OVC060,0.00,VWS V14.01,2013-10-13 19:38:00,
2013-10-13 15:43:00,75.1,54.7,30.33,ENE,74,3.0,5.0,49,0.00,,OVC060,0.00,VWS V14.01,2013-10-13 19:43:00,
2013-10-13 15:48:00,74.8,54.9,30.33,East,94,0.0,5.0,50,0.00,,OVC060,0.00,VWS V14.01,2013-10-13 19:48:00,
2013-10-13 15:53:00,74.6,55.3,30.33,ESE,123,2.0,5.0,51,0.00,,OVC060,0.00,VWS V14.01,2013-10-13 19:53:00,
2013-10-13 15:58:00,74.5,54.7,30.33,SE,126,0.0,6.0,50,0.00,,OVC060,0.00,VWS V14.01,2013-10-13 19:58:00,
2013-10-13 16:03:00,74.3,55.0,30.33,SE,136,0.0,4.0,51,0.00,,OVC060,0.00,VWS V14.01,2013-10-13 20:03:00,
2013-10-13 16:08:00,74.2,54.9,30.34,SE,136,1.0,4.0,51,0.00,,OVC060,0.00,VWS V14.01,2013-10-13 20:08:00,
2013-10-13 16:14:00,74.0,54.7,30.34,ESE,112,2.0,5.0,51,0.00,,OVC060,0.00,VWS V14.01,2013-10-13 20:14:00,
2013-10-13 16:19:00,73.9,54.7,30.34,South,183,2.0,8.0,51,0.00,,OVC060,0.00,VWS V14.01,2013-10-13 20:19:00,
2013-10-13 16:24:00,73.7,54.5,30.34,SSE,155,3.0,8.0,51,0.00,,OVC060,0.00,VWS V14.01,2013-10-13 20:24:00,
2013-10-13 16:29:00,73.5,54.3,30.34,East,95,1.0,8.0,51,0.00,,OVC060,0.00,VWS V14.01,2013-10-13 20:29:00,
2013-10-13 16:34:00,73.3,54.1,30.33,South,171,3.0,6.0,51,0.00,,OVC060,0.00,VWS V14.01,2013-10-13 20:34:00,
2013-10-13 16:39:00,72.9,54.3,30.34,SE,136,0.0,6.0,52,0.00,,OVC060,0.00,VWS V14.01,2013-10-13 20:39:00,
2013-10-13 16:44:00,72.8,54.2,30.34,SSE,166,3.0,6.0,52,0.00,,OVC060,0.00,VWS V14.01,2013-10-13 20:44:00,
2013-10-13 16:49:00,72.5,53.9,30.34,South,185,0.0,6.0,52,0.00,,OVC060,0.00,VWS V14.01,2013-10-13 20:49:00,
2013-10-13 16:54:00,72.3,54.2,30.34,South,185,0.0,6.0,53,0.00,,OVC060,0.00,VWS V14.01,2013-10-13 20:54:00,
2013-10-13 16:59:00,72.2,54.7,30.33,South,185,0.0,6.0,54,0.00,,OVC060,0.00,VWS V14.01,2013-10-13 20:59:00,
2013-10-13 17:04:00,72.0,54.5,30.33,SE,127,0.0,6.0,54,0.00,,OVC060,0.00,VWS V14.01,2013-10-13 21:04:00,
2013-10-13 17:09:00,71.8,54.3,30.34,ESE,114,0.0,6.0,54,0.00,,OVC060,0.00,VWS V14.01,2013-10-13 21:09:00,
2013-10-13 17:14:00,71.6,54.6,30.34,SE,130,2.0,6.0,55,0.00,,OVC060,0.00,VWS V14.01,2013-10-13 21:14:00,
2013-10-13 17:19:00,71.3,53.8,30.34,South,171,0.0,6.0,54,0.00,,OVC060,0.00,VWS V14.01,2013-10-13 21:19:00,
2013-10-13 17:24:00,71.1,54.1,30.34,South,171,0.0,6.0,55,0.00,,OVC060,0.00,VWS V14.01,2013-10-13 21:24:00,
2013-10-13 17:29:00,70.7,53.8,30.34,SSE,167,0.0,6.0,55,0.00,,OVC060,0.00,VWS V14.01,2013-10-13 21:29:00,
2013-10-13 17:34:00,70.4,53.5,30.34,South,169,0.0,4.0,55,0.00,,OVC060,0.00,VWS V14.01,2013-10-13 21:34:00,
2013-10-13 17:39:00,70.0,53.6,30.34,SSE,153,0.0,4.0,56,0.00,,OVC060,0.00,VWS V14.01,2013-10-13 21:39:00,
2013-10-13 17:44:00,69.7,53.3,30.34,ESE,114,0.0,5.0,56,0.00,,OVC060,0.00,VWS V14.01,2013-10-13 21:44:00,
2013-10-13 17:49:00,69.4,53.0,30.34,SE,133,0.0,6.0,56,0.00,,OVC060,0.00,VWS V14.01,2013-10-13 21:49:00,
2013-10-13 17:54:00,69.1,53.2,30.34,SE,131,0.0,6.0,57,0.00,,OVC060,0.00,VWS V14.01,2013-10-13 21:54:00,
2013-10-13 17:59:00,68.8,53.4,30.35,SSE,160,0.0,6.0,58,0.00,,OVC060,0.00,VWS V14.01,2013-10-13 21:59:00,
2013-10-13 18:04:00,68.5,53.2,30.35,SSE,159,0.0,2.0,58,0.00,,BKN065,0.00,VWS V14.01,2013-10-13 22:04:00,
2013-10-13 18:09:00,68.2,52.9,30.35,ESE,120,0.0,10.0,58,0.00,,BKN065,0.00,VWS V14.01,2013-10-13 22:09:00,
2013-10-13 18:14:00,67.9,53.1,30.35,ESE,114,5.0,10.0,59,0.00,,BKN065,0.00,VWS V14.01,2013-10-13 22:14:00,
2013-10-13 18:19:00,67.5,53.1,30.35,SSE,163,0.0,10.0,60,0.00,,BKN065,0.00,VWS V14.01,2013-10-13 22:19:00,
2013-10-13 18:24:00,67.2,52.9,30.35,ESE,117,3.0,10.0,60,0.00,,BKN065,0.00,VWS V14.01,2013-10-13 22:24:00,
2013-10-13 18:29:00,66.8,52.9,30.35,SSE,166,1.0,10.0,61,0.00,,BKN065,0.00,VWS V14.01,2013-10-13 22:29:00,
2013-10-13 18:34:00,66.5,52.7,30.35,South,175,0.0,5.0,61,0.00,,BKN065,0.00,VWS V14.01,2013-10-13 22:34:00,
2013-10-13 18:39:00,66.2,52.8,30.35,South,177,2.0,6.0,62,0.00,,BKN065,0.00,VWS V14.01,2013-10-13 22:39:00,
2013-10-13 18:44:00,65.8,52.4,30.35,SE,126,0.0,7.0,62,0.00,,BKN065,0.00,VWS V14.01,2013-10-13 22:44:00,
2013-10-13 18:49:00,65.5,52.6,30.35,South,178,3.0,7.0,63,0.00,,BKN065,0.00,VWS V14.01,2013-10-13 22:49:00,
2013-10-13 18:54:00,65.2,52.3,30.36,SSE,167,1.0,8.0,63,0.00,,BKN065,0.00,VWS V14.01,2013-10-13 22:54:00,
2013-10-13 18:59:00,64.9,52.5,30.36,SSE,160,0.0,8.0,64,0.00,,BKN065,0.00,VWS V14.01,2013-10-13 22:59:00,
2013-10-13 19:04:00,64.6,52.2,30.36,East,92,0.0,6.0,64,0.00,,CLR,0.00,VWS V14.01,2013-10-13 23:04:00,
2013-10-13 19:09:00,64.2,52.2,30.36,SE,124,1.0,6.0,65,0.00,,CLR,0.00,VWS V14.01,2013-10-13 23:09:00,
2013-10-13 19:14:00,63.9,52.3,30.36,SSE,166,2.0,6.0,66,0.00,,CLR,0.00,VWS V14.01,2013-10-13 23:14:00,
2013-10-13 19:19:00,63.6,52.5,30.36,SE,130,2.0,6.0,67,0.00,,CLR,0.00,VWS V14.01,2013-10-13 23:19:00,
2013-10-13 19:24:00,63.4,52.3,30.36,East,99,0.0,6.0,67,0.00,,CLR,0.00,VWS V14.01,2013-10-13 23:24:00,
2013-10-13 19:29:00,63.1,52.4,30.36,SE,139,0.0,6.0,68,0.00,,CLR,0.00,VWS V14.01,2013-10-13 23:29:00,
2013-10-13 19:34:00,62.9,52.2,30.36,SE,138,0.0,2.0,68,0.00,,CLR,0.00,VWS V14.01,2013-10-13 23:34:00,
2013-10-13 19:39:00,62.5,51.8,30.36,SE,140,0.0,2.0,68,0.00,,CLR,0.00,VWS V14.01,2013-10-13 23:39:00,
2013-10-13 19:44:00,62.1,51.8,30.36,SE,138,0.0,2.0,69,0.00,,CLR,0.00,VWS V14.01,2013-10-13 23:44:00,
2013-10-13 19:49:00,61.7,51.8,30.36,SE,141,0.0,2.0,70,0.00,,CLR,0.00,VWS V14.01,2013-10-13 23:49:00,
2013-10-13 19:54:00,61.3,51.5,30.37,SE,141,0.0,2.0,70,0.00,,CLR,0.00,VWS V14.01,2013-10-13 23:54:00,
2013-10-13 19:59:00,60.7,51.6,30.37,SE,141,0.0,2.0,72,0.00,,CLR,0.00,VWS V14.01,2013-10-13 23:59:00,
2013-10-13 20:04:00,60.5,52.2,30.37,SE,141,0.0,0.0,74,0.00,,CLR,0.00,VWS V14.01,2013-10-14 00:04:00,
2013-10-13 20:09:00,60.0,51.7,30.37,SE,141,0.0,0.0,74,0.00,,CLR,0.00,VWS V14.01,2013-10-14 00:09:00,
2013-10-13 20:14:00,59.5,51.6,30.37,SE,140,0.0,0.0,75,0.00,,CLR,0.00,VWS V14.01,2013-10-14 00:14:00,
2013-10-13 20:19:00,59.3,52.1,30.38,SE,139,0.0,0.0,77,0.00,,CLR,0.00,VWS V14.01,2013-10-14 00:19:00,
2013-10-13 20:24:00,58.6,51.4,30.38,SE,138,0.0,0.0,77,0.00,,CLR,0.00,VWS V14.01,2013-10-14 00:24:00,
2013-10-13 20:29:00,58.1,50.9,30.37,SE,138,0.0,0.0,77,0.00,,CLR,0.00,VWS V14.01,2013-10-14 00:29:00,
2013-10-13 20:34:00,57.7,51.6,30.37,SE,139,0.0,0.0,80,0.00,,CLR,0.00,VWS V14.01,2013-10-14 00:34:00,
2013-10-13 20:39:00,57.1,50.7,30.37,SE,139,0.0,0.0,79,0.00,,CLR,0.00,VWS V14.01,2013-10-14 00:39:00,
2013-10-13 20:44:00,57.0,51.2,30.37,SE,138,0.0,0.0,81,0.00,,CLR,0.00,VWS V14.01,2013-10-14 00:44:00,
2013-10-13 20:49:00,56.6,51.2,30.37,SE,139,0.0,0.0,82,0.00,,CLR,0.00,VWS V14.01,2013-10-14 00:49:00,
2013-10-13 20:54:00,56.3,50.9,30.38,SE,138,0.0,0.0,82,0.00,,CLR,0.00,VWS V14.01,2013-10-14 00:54:00,
2013-10-13 20:59:00,56.0,50.9,30.38,SE,139,0.0,0.0,83,0.00,,CLR,0.00,VWS V14.01,2013-10-14 00:59:00,
2013-10-13 21:04:00,55.7,50.6,30.38,SE,139,0.0,0.0,83,0.00,,CLR,0.00,VWS V14.01,2013-10-14 01:04:00,
2013-10-13 21:09:00,55.4,50.7,30.38,SE,138,0.0,0.0,84,0.00,,CLR,0.00,VWS V14.01,2013-10-14 01:09:00,
2013-10-13 21:14:00,55.1,50.7,30.38,SE,138,0.0,0.0,85,0.00,,CLR,0.00,VWS V14.01,2013-10-14 01:14:00,
2013-10-13 21:19:00,54.9,50.2,30.38,SE,138,0.0,0.0,84,0.00,,CLR,0.00,VWS V14.01,2013-10-14 01:19:00,
2013-10-13 21:24:00,54.6,50.2,30.38,SE,138,0.0,0.0,85,0.00,,CLR,0.00,VWS V14.01,2013-10-14 01:24:00,
2013-10-13 21:29:00,54.4,50.0,30.38,SE,138,0.0,0.0,85,0.00,,CLR,0.00,VWS V14.01,2013-10-14 01:29:00,
2013-10-13 21:34:00,54.2,50.1,30.39,SE,139,0.0,0.0,86,0.00,,CLR,0.00,VWS V14.01,2013-10-14 01:34:00,
2013-10-13 21:39:00,54.1,50.3,30.39,SE,139,0.0,0.0,87,0.00,,CLR,0.00,VWS V14.01,2013-10-14 01:39:00,
2013-10-13 21:44:00,53.9,50.1,30.39,SE,138,0.0,0.0,87,0.00,,CLR,0.00,VWS V14.01,2013-10-14 01:44:00,
2013-10-13 21:49:00,53.7,49.6,30.39,SE,138,0.0,0.0,86,0.00,,CLR,0.00,VWS V14.01,2013-10-14 01:49:00,
2013-10-13 21:54:00,53.4,49.6,30.39,SE,139,0.0,0.0,87,0.00,,CLR,0.00,VWS V14.01,2013-10-14 01:54:00,
2013-10-13 21:59:00,53.2,49.4,30.39,SE,139,0.0,0.0,87,0.00,,CLR,0.00,VWS V14.01,2013-10-14 01:59:00,
2013-10-13 22:04:00,53.0,49.2,30.39,SE,139,0.0,0.0,87,0.00,,CLR,0.00,VWS V14.01,2013-10-14 02:04:00,
2013-10-13 22:09:00,52.8,49.3,30.39,SE,139,0.0,1.0,88,0.00,,CLR,0.00,VWS V14.01,2013-10-14 02:09:00,
2013-10-13 22:14:00,52.7,49.5,30.39,SE,139,0.0,1.0,89,0.00,,CLR,0.00,VWS V14.01,2013-10-14 02:14:00,
2013-10-13 22:19:00,52.6,49.5,30.39,SE,139,0.0,1.0,89,0.00,,CLR,0.00,VWS V14.01,2013-10-14 02:19:00,
2013-10-13 22:24:00,52.4,49.3,30.39,SE,140,0.0,1.0,89,0.00,,CLR,0.00,VWS V14.01,2013-10-14 02:24:00,
2013-10-13 22:29:00,52.1,49.0,30.39,SE,140,0.0,1.0,89,0.00,,CLR,0.00,VWS V14.01,2013-10-14 02:29:00,
2013-10-13 22:34:00,52.0,49.2,30.39,SE,140,0.0,0.0,90,0.00,,CLR,0.00,VWS V14.01,2013-10-14 02:34:00,
2013-10-13 22:39:00,51.9,49.1,30.39,SE,140,0.0,0.0,90,0.00,,CLR,0.00,VWS V14.01,2013-10-14 02:39:00,
2013-10-13 22:44:00,51.8,49.3,30.39,SE,140,0.0,0.0,91,0.00,,CLR,0.00,VWS V14.01,2013-10-14 02:44:00,
2013-10-13 22:49:00,51.7,49.2,30.39,SE,140,0.0,0.0,91,0.00,,CLR,0.00,VWS V14.01,2013-10-14 02:49:00,
2013-10-13 22:54:00,51.5,49.0,30.39,SE,140,0.0,0.0,91,0.00,,CLR,0.00,VWS V14.01,2013-10-14 02:54:00,
2013-10-13 22:59:00,51.4,48.9,30.39,SE,139,0.0,0.0,91,0.00,,CLR,0.00,VWS V14.01,2013-10-14 02:59:00,
2013-10-13 23:04:00,51.3,49.1,30.39,SE,139,0.0,1.0,92,0.00,,CLR,0.00,VWS V14.01,2013-10-14 03:04:00,
2013-10-13 23:09:00,51.4,49.5,30.39,SE,140,0.0,2.0,93,0.00,,CLR,0.00,VWS V14.01,2013-10-14 03:09:00,
2013-10-13 23:14:00,51.5,49.5,30.39,SE,140,0.0,2.0,93,0.00,,CLR,0.00,VWS V14.01,2013-10-14 03:14:00,
2013-10-13 23:19:00,51.5,49.8,30.39,ESE,113,0.0,4.0,94,0.00,,CLR,0.00,VWS V14.01,2013-10-14 03:19:00,
2013-10-13 23:24:00,51.6,49.9,30.39,ESE,113,0.0,4.0,94,0.00,,CLR,0.00,VWS V14.01,2013-10-14 03:24:00,
2013-10-13 23:29:00,51.5,49.5,30.39,ESE,113,0.0,4.0,93,0.00,,CLR,0.00,VWS V14.01,2013-10-14 03:29:00,
2013-10-13 23:34:00,51.4,49.5,30.39,ESE,113,0.0,0.0,93,0.00,,CLR,0.00,VWS V14.01,2013-10-14 03:34:00,
2013-10-13 23:39:00,51.3,49.3,30.39,ESE,113,0.0,1.0,93,0.00,,CLR,0.00,VWS V14.01,2013-10-14 03:39:00,
2013-10-13 23:44:00,51.3,49.6,30.39,ESE,113,0.0,1.0,94,0.00,,CLR,0.00,VWS V14.01,2013-10-14 03:44:00,
2013-10-13 23:49:00,51.4,49.7,30.40,NNE,30,0.0,4.0,94,0.00,,CLR,0.00,VWS V14.01,2013-10-14 03:49:00,
2013-10-13 23:54:00,51.3,49.6,30.40,NNE,30,0.0,4.0,94,0.00,,CLR,0.00,VWS V14.01,2013-10-14 03:54:00,
2013-10-13 23:59:00,51.2,49.5,30.40,NNE,30,0.0,4.0,94,0.00,,CLR,0.00,VWS V14.01,2013-10-14 03:59:00,